GFSGL_prec_pwat_159.txt.gz
Precipitable_Water
0.87 0.92 0.95 0.98 1.03 1.08 1.12 1.16 1.18 1.21 1.20 1.18 1.16 1.09 1.09 1.13 1.21 1.21 1.26 1.34 1.31 1.34 1.35 1.32 1.26 1.25 1.20 1.18 1.15 1.10 1.04 1.01 0.92 0.98 1.02 1.03 1.03 1.05 1.05 1.07 1.08 1.08 1.10
0.81 0.86 0.89 0.95 0.97 0.97 1.06 1.14 1.19 1.21 1.22 1.28 1.24 1.16 1.11 1.10 1.21 1.21 1.22 1.27 1.29 1.28 1.29 1.29 1.26 1.27 1.20 1.16 1.13 1.08 1.06 1.09 1.03 0.97 1.01 1.02 1.02 1.04 1.04 1.02 1.02 1.02 0.99
0.83 0.92 0.93 0.93 0.96 1.01 1.13 1.23 1.24 1.21 1.23 1.23 1.21 1.15 1.12 1.13 1.17 1.24 1.26 1.26 1.30 1.30 1.29 1.25 1.24 1.23 1.17 1.16 1.14 1.11 1.11 1.13 1.12 1.05 1.01 1.06 1.05 1.04 1.00 0.98 0.95 0.90 0.82
0.87 0.89 0.90 0.92 0.97 1.06 1.16 1.22 1.21 1.22 1.17 1.20 1.19 1.16 1.16 1.18 1.22 1.25 1.28 1.30 1.30 1.28 1.28 1.27 1.25 1.21 1.18 1.17 1.15 1.12 1.12 1.10 1.09 1.05 1.02 1.00 1.00 0.97 0.91 0.80 0.73 0.73 0.65
0.86 0.87 0.86 0.94 1.02 1.09 1.14 1.20 1.25 1.25 1.17 1.15 1.17 1.18 1.22 1.28 1.28 1.29 1.29 1.28 1.25 1.23 1.25 1.24 1.23 1.24 1.23 1.19 1.15 1.12 1.10 1.05 1.03 0.98 0.90 0.85 0.80 0.73 0.62 0.62 0.58 0.57 0.56
0.84 0.85 0.90 0.94 1.00 1.02 1.07 1.13 1.22 1.22 1.24 1.24 1.23 1.25 1.27 1.27 1.29 1.29 1.27 1.23 1.22 1.21 1.17 1.20 1.21 1.19 1.17 1.14 1.11 1.05 0.97 0.86 0.78 0.71 0.58 0.53 0.52 0.54 0.55 0.53 0.48 0.44 0.40
0.83 0.85 0.88 0.91 0.94 0.97 1.00 1.03 1.10 1.17 1.22 1.22 1.24 1.25 1.23 1.25 1.26 1.26 1.24 1.21 1.17 1.16 1.15 1.13 1.12 1.06 0.97 0.92 0.89 0.82 0.68 0.59 0.56 0.53 0.48 0.46 0.45 0.47 0.46 0.44 0.43 0.42 0.41
0.82 0.84 0.88 0.88 0.89 0.93 0.92 0.87 0.92 1.04 1.10 1.15 1.15 1.16 1.17 1.17 1.17 1.15 1.11 1.06 1.00 0.94 0.89 0.82 0.77 0.76 0.71 0.57 0.50 0.48 0.48 0.47 0.47 0.46 0.45 0.45 0.46 0.47 0.46 0.46 0.45 0.46 0.47
0.81 0.84 0.86 0.86 0.86 0.85 0.81 0.68 0.69 0.74 0.78 0.81 0.83 0.84 0.84 0.83 0.84 0.82 0.80 0.76 0.72 0.71 0.73 0.68 0.60 0.55 0.54 0.53 0.50 0.48 0.48 0.50 0.55 0.55 0.55 0.56 0.54 0.51 0.49 0.49 0.45 0.43 0.40
0.82 0.84 0.85 0.85 0.82 0.64 0.58 0.55 0.58 0.64 0.65 0.68 0.67 0.70 0.72 0.68 0.70 0.67 0.66 0.62 0.57 0.55 0.57 0.57 0.56 0.54 0.54 0.53 0.52 0.52 0.50 0.54 0.56 0.57 0.58 0.56 0.55 0.55 0.52 0.48 0.45 0.40 0.40
0.86 0.86 0.82 0.83 0.65 0.54 0.53 0.55 0.56 0.58 0.60 0.61 0.60 0.62 0.61 0.59 0.57 0.55 0.53 0.50 0.48 0.48 0.48 0.50 0.54 0.55 0.56 0.54 0.54 0.53 0.52 0.53 0.52 0.50 0.47 0.46 0.46 0.47 0.46 0.46 0.46 0.44 0.40
0.86 0.83 0.76 0.69 0.57 0.53 0.52 0.54 0.57 0.58 0.54 0.53 0.51 0.49 0.50 0.50 0.50 0.50 0.49 0.47 0.48 0.45 0.48 0.51 0.53 0.55 0.58 0.57 0.55 0.54 0.53 0.51 0.48 0.45 0.43 0.42 0.42 0.42 0.43 0.45 0.45 0.45 0.45
0.82 0.79 0.69 0.61 0.54 0.54 0.53 0.54 0.53 0.54 0.47 0.43 0.41 0.40 0.41 0.44 0.46 0.46 0.45 0.46 0.47 0.44 0.45 0.48 0.49 0.50 0.51 0.53 0.50 0.49 0.47 0.45 0.43 0.41 0.41 0.41 0.42 0.42 0.43 0.42 0.43 0.43 0.43
0.77 0.73 0.63 0.56 0.51 0.54 0.56 0.54 0.50 0.46 0.41 0.37 0.35 0.35 0.37 0.39 0.41 0.44 0.44 0.43 0.43 0.42 0.43 0.44 0.47 0.49 0.48 0.46 0.43 0.43 0.43 0.42 0.39 0.38 0.36 0.35 0.35 0.34 0.34 0.36 0.35 0.37 0.36
0.74 0.67 0.59 0.55 0.52 0.52 0.53 0.50 0.47 0.44 0.39 0.35 0.35 0.36 0.35 0.36 0.39 0.39 0.37 0.37 0.39 0.40 0.42 0.44 0.44 0.45 0.42 0.39 0.38 0.38 0.37 0.36 0.31 0.30 0.29 0.30 0.30 0.32 0.32 0.35 0.34 0.34 0.32
0.68 0.63 0.57 0.53 0.52 0.51 0.49 0.46 0.48 0.43 0.42 0.42 0.41 0.40 0.41 0.40 0.41 0.39 0.37 0.38 0.44 0.46 0.44 0.40 0.41 0.43 0.40 0.37 0.34 0.32 0.28 0.26 0.27 0.27 0.27 0.27 0.28 0.29 0.30 0.33 0.33 0.31 0.30
0.65 0.60 0.57 0.54 0.52 0.47 0.45 0.40 0.36 0.43 0.43 0.40 0.40 0.40 0.40 0.40 0.40 0.37 0.37 0.42 0.48 0.48 0.41 0.38 0.40 0.41 0.39 0.34 0.30 0.23 0.22 0.24 0.27 0.27 0.27 0.29 0.31 0.31 0.31 0.30 0.31 0.31 0.31
0.66 0.61 0.56 0.53 0.52 0.47 0.44 0.40 0.39 0.38 0.37 0.38 0.39 0.37 0.39 0.40 0.39 0.37 0.40 0.44 0.47 0.47 0.42 0.37 0.39 0.40 0.36 0.29 0.23 0.21 0.22 0.24 0.25 0.26 0.29 0.29 0.30 0.29 0.29 0.30 0.32 0.32 0.34
0.65 0.60 0.58 0.54 0.52 0.47 0.44 0.41 0.39 0.38 0.35 0.35 0.37 0.38 0.40 0.40 0.39 0.39 0.44 0.40 0.44 0.47 0.44 0.36 0.40 0.38 0.32 0.24 0.22 0.22 0.22 0.23 0.25 0.27 0.29 0.29 0.30 0.30 0.29 0.31 0.33 0.34 0.33
0.66 0.62 0.57 0.54 0.51 0.46 0.43 0.40 0.38 0.35 0.34 0.34 0.35 0.35 0.38 0.40 0.37 0.39 0.42 0.40 0.42 0.46 0.43 0.35 0.38 0.35 0.29 0.24 0.22 0.22 0.23 0.24 0.26 0.28 0.28 0.28 0.28 0.29 0.29 0.29 0.30 0.29 0.29
0.63 0.62 0.57 0.54 0.46 0.43 0.42 0.39 0.37 0.34 0.33 0.33 0.34 0.36 0.37 0.36 0.36 0.37 0.40 0.41 0.43 0.44 0.41 0.36 0.37 0.32 0.27 0.23 0.22 0.22 0.24 0.25 0.27 0.27 0.27 0.26 0.26 0.26 0.28 0.29 0.29 0.29 0.29
0.63 0.59 0.57 0.52 0.46 0.41 0.40 0.39 0.35 0.34 0.33 0.32 0.34 0.38 0.40 0.38 0.38 0.38 0.40 0.41 0.43 0.46 0.41 0.36 0.35 0.31 0.25 0.23 0.22 0.23 0.24 0.25 0.26 0.26 0.26 0.25 0.25 0.25 0.26 0.26 0.27 0.27 0.26
0.66 0.58 0.55 0.52 0.46 0.42 0.41 0.39 0.35 0.34 0.33 0.33 0.35 0.37 0.40 0.38 0.38 0.39 0.40 0.42 0.44 0.45 0.41 0.36 0.33 0.28 0.24 0.24 0.25 0.25 0.25 0.26 0.27 0.27 0.25 0.23 0.22 0.22 0.23 0.24 0.26 0.26 0.26
0.67 0.60 0.54 0.50 0.46 0.43 0.41 0.37 0.36 0.36 0.35 0.34 0.36 0.37 0.39 0.40 0.40 0.40 0.41 0.43 0.43 0.43 0.40 0.35 0.32 0.27 0.22 0.23 0.25 0.27 0.29 0.29 0.29 0.26 0.25 0.22 0.22 0.22 0.23 0.23 0.23 0.24 0.25
0.66 0.60 0.55 0.50 0.46 0.44 0.43 0.39 0.37 0.37 0.36 0.36 0.37 0.39 0.41 0.41 0.42 0.42 0.42 0.42 0.41 0.41 0.38 0.34 0.30 0.25 0.22 0.22 0.25 0.27 0.29 0.29 0.28 0.26 0.24 0.23 0.23 0.23 0.22 0.23 0.22 0.22 0.21
0.64 0.59 0.54 0.52 0.49 0.49 0.45 0.41 0.38 0.38 0.37 0.37 0.38 0.40 0.42 0.42 0.43 0.43 0.43 0.41 0.39 0.40 0.36 0.32 0.28 0.23 0.22 0.24 0.26 0.28 0.29 0.27 0.25 0.25 0.25 0.24 0.23 0.22 0.22 0.22 0.22 0.21 0.20

GFSGL_prec_pwat_162.txt.gz
Precipitable_Water
0.88 0.92 0.95 0.98 1.01 1.04 1.04 1.08 1.11 1.15 1.17 1.20 1.20 1.20 1.16 1.15 1.19 1.23 1.19 1.23 1.28 1.32 1.34 1.32 1.30 1.30 1.27 1.25 1.21 1.16 1.04 0.97 0.87 0.96 0.99 1.01 1.01 1.04 1.07 1.10 1.13 1.11 1.12
0.82 0.83 0.87 0.93 0.97 0.97 0.97 1.02 1.15 1.17 1.20 1.18 1.20 1.20 1.20 1.15 1.14 1.12 1.13 1.16 1.22 1.29 1.28 1.27 1.27 1.29 1.26 1.22 1.17 1.13 1.10 1.08 1.00 0.93 1.00 1.03 1.03 1.07 1.08 1.07 1.05 1.05 1.04
0.79 0.84 0.91 0.93 0.94 0.95 1.05 1.17 1.22 1.19 1.20 1.20 1.26 1.23 1.16 1.14 1.14 1.13 1.15 1.19 1.25 1.28 1.29 1.27 1.26 1.26 1.18 1.16 1.15 1.12 1.12 1.11 1.09 1.04 1.03 1.08 1.07 1.08 1.04 1.04 1.02 1.00 0.98
0.80 0.88 0.90 0.90 0.98 1.06 1.15 1.21 1.20 1.21 1.22 1.20 1.13 1.16 1.15 1.13 1.14 1.17 1.22 1.26 1.26 1.28 1.28 1.27 1.24 1.21 1.18 1.19 1.15 1.13 1.14 1.11 1.10 1.05 1.02 1.01 1.02 1.03 1.01 0.94 0.88 0.85 0.78
0.80 0.86 0.86 0.90 0.98 1.06 1.12 1.18 1.22 1.18 1.17 1.15 1.15 1.14 1.15 1.12 1.17 1.23 1.27 1.26 1.25 1.23 1.25 1.26 1.26 1.25 1.23 1.21 1.16 1.13 1.12 1.07 1.04 1.00 0.97 0.94 0.89 0.81 0.72 0.72 0.65 0.63 0.62
0.82 0.83 0.86 0.91 0.98 1.01 1.05 1.15 1.22 1.22 1.21 1.13 1.15 1.17 1.22 1.29 1.31 1.29 1.29 1.25 1.23 1.21 1.19 1.20 1.22 1.22 1.20 1.18 1.14 1.10 1.05 0.95 0.87 0.80 0.74 0.61 0.55 0.57 0.58 0.58 0.57 0.53 0.47
0.82 0.84 0.87 0.91 0.95 0.96 1.01 1.08 1.16 1.18 1.23 1.23 1.23 1.25 1.24 1.26 1.28 1.27 1.26 1.24 1.20 1.18 1.16 1.14 1.13 1.13 1.07 0.96 0.88 0.86 0.74 0.64 0.61 0.57 0.53 0.52 0.51 0.51 0.51 0.49 0.48 0.47 0.46
0.80 0.83 0.86 0.88 0.90 0.94 0.95 0.94 1.04 1.15 1.18 1.19 1.20 1.21 1.20 1.22 1.24 1.23 1.19 1.14 1.08 1.02 0.96 0.87 0.82 0.77 0.73 0.63 0.51 0.49 0.50 0.51 0.50 0.50 0.51 0.50 0.50 0.50 0.50 0.49 0.50 0.50 0.51
0.77 0.82 0.85 0.87 0.87 0.89 0.82 0.80 0.89 0.91 0.95 0.97 0.98 0.98 0.96 0.91 0.92 0.88 0.85 0.81 0.79 0.77 0.76 0.76 0.66 0.53 0.52 0.52 0.52 0.51 0.52 0.54 0.58 0.57 0.56 0.54 0.52 0.50 0.48 0.50 0.46 0.44 0.43
0.78 0.82 0.86 0.85 0.85 0.82 0.68 0.67 0.74 0.78 0.78 0.77 0.76 0.78 0.78 0.75 0.81 0.79 0.78 0.73 0.68 0.64 0.56 0.53 0.55 0.54 0.53 0.52 0.51 0.50 0.46 0.48 0.48 0.48 0.47 0.48 0.49 0.51 0.46 0.43 0.41 0.37 0.37
0.83 0.85 0.85 0.83 0.77 0.63 0.59 0.61 0.64 0.66 0.68 0.69 0.69 0.71 0.71 0.69 0.67 0.64 0.60 0.54 0.49 0.48 0.49 0.49 0.50 0.49 0.47 0.47 0.48 0.47 0.46 0.47 0.45 0.44 0.43 0.43 0.43 0.43 0.45 0.45 0.44 0.41 0.38
0.83 0.84 0.82 0.81 0.62 0.55 0.53 0.56 0.60 0.63 0.63 0.62 0.59 0.57 0.57 0.55 0.54 0.52 0.50 0.48 0.49 0.46 0.44 0.45 0.50 0.53 0.52 0.51 0.51 0.50 0.48 0.47 0.45 0.42 0.40 0.39 0.38 0.37 0.37 0.37 0.37 0.38 0.38
0.82 0.82 0.79 0.73 0.54 0.54 0.53 0.55 0.58 0.59 0.55 0.51 0.47 0.43 0.44 0.47 0.49 0.48 0.47 0.45 0.43 0.40 0.45 0.47 0.49 0.51 0.50 0.48 0.46 0.44 0.43 0.41 0.39 0.36 0.33 0.31 0.30 0.32 0.33 0.34 0.37 0.38 0.39
0.80 0.79 0.75 0.60 0.51 0.52 0.56 0.57 0.54 0.51 0.47 0.43 0.40 0.38 0.41 0.43 0.44 0.44 0.42 0.41 0.39 0.41 0.42 0.44 0.47 0.47 0.45 0.40 0.39 0.38 0.38 0.35 0.30 0.27 0.27 0.28 0.30 0.30 0.30 0.32 0.31 0.32 0.31
0.81 0.79 0.68 0.57 0.50 0.50 0.55 0.55 0.51 0.48 0.43 0.38 0.37 0.37 0.37 0.38 0.38 0.39 0.38 0.37 0.39 0.42 0.43 0.44 0.43 0.41 0.37 0.35 0.34 0.32 0.28 0.26 0.25 0.25 0.25 0.26 0.28 0.29 0.30 0.33 0.33 0.31 0.30
0.77 0.76 0.65 0.55 0.50 0.52 0.51 0.50 0.51 0.46 0.42 0.40 0.40 0.40 0.40 0.37 0.37 0.37 0.37 0.40 0.43 0.44 0.41 0.40 0.40 0.38 0.34 0.31 0.28 0.22 0.23 0.23 0.24 0.25 0.26 0.27 0.28 0.29 0.30 0.32 0.32 0.31 0.30
0.76 0.73 0.63 0.55 0.50 0.50 0.50 0.47 0.41 0.43 0.44 0.42 0.42 0.40 0.38 0.37 0.37 0.36 0.39 0.45 0.46 0.43 0.38 0.38 0.39 0.37 0.32 0.27 0.21 0.20 0.21 0.24 0.26 0.26 0.27 0.28 0.28 0.29 0.29 0.29 0.30 0.32 0.32
0.78 0.73 0.63 0.56 0.51 0.51 0.49 0.44 0.41 0.37 0.36 0.39 0.41 0.40 0.40 0.39 0.37 0.37 0.43 0.47 0.43 0.42 0.38 0.37 0.37 0.34 0.29 0.23 0.21 0.21 0.23 0.24 0.26 0.27 0.27 0.27 0.27 0.27 0.27 0.29 0.30 0.31 0.31
0.74 0.71 0.65 0.58 0.53 0.51 0.47 0.42 0.40 0.39 0.37 0.34 0.36 0.40 0.42 0.39 0.38 0.39 0.43 0.45 0.46 0.43 0.38 0.35 0.37 0.32 0.27 0.24 0.23 0.22 0.24 0.25 0.27 0.27 0.27 0.26 0.26 0.26 0.26 0.27 0.28 0.28 0.29
0.74 0.71 0.66 0.59 0.54 0.50 0.46 0.41 0.40 0.40 0.36 0.33 0.32 0.35 0.40 0.39 0.36 0.38 0.42 0.42 0.46 0.46 0.39 0.35 0.36 0.31 0.27 0.24 0.23 0.23 0.25 0.26 0.26 0.26 0.26 0.26 0.26 0.26 0.25 0.25 0.26 0.26 0.26
0.73 0.71 0.65 0.60 0.53 0.49 0.45 0.41 0.39 0.36 0.34 0.34 0.34 0.37 0.39 0.37 0.36 0.38 0.40 0.40 0.43 0.46 0.39 0.35 0.35 0.30 0.26 0.24 0.23 0.24 0.25 0.26 0.26 0.26 0.25 0.25 0.24 0.23 0.24 0.24 0.24 0.25 0.26
0.73 0.70 0.65 0.58 0.52 0.48 0.45 0.42 0.37 0.34 0.34 0.34 0.35 0.37 0.40 0.39 0.39 0.39 0.40 0.40 0.43 0.47 0.42 0.35 0.34 0.30 0.25 0.24 0.24 0.25 0.26 0.26 0.26 0.26 0.24 0.24 0.23 0.22 0.22 0.22 0.22 0.22 0.22
0.73 0.69 0.64 0.58 0.53 0.48 0.45 0.41 0.36 0.33 0.33 0.34 0.35 0.36 0.39 0.39 0.40 0.40 0.42 0.42 0.42 0.45 0.43 0.36 0.33 0.28 0.25 0.25 0.27 0.28 0.27 0.27 0.27 0.27 0.24 0.23 0.22 0.22 0.22 0.22 0.22 0.21 0.20
0.72 0.68 0.63 0.56 0.52 0.46 0.42 0.39 0.36 0.34 0.32 0.33 0.34 0.36 0.38 0.40 0.40 0.42 0.43 0.43 0.42 0.44 0.43 0.34 0.32 0.27 0.24 0.25 0.27 0.29 0.30 0.30 0.29 0.27 0.25 0.23 0.23 0.23 0.23 0.22 0.22 0.21 0.20
0.72 0.65 0.62 0.55 0.50 0.45 0.41 0.38 0.35 0.34 0.33 0.33 0.33 0.36 0.40 0.42 0.42 0.43 0.43 0.43 0.41 0.41 0.41 0.33 0.31 0.26 0.23 0.24 0.26 0.29 0.29 0.29 0.29 0.26 0.26 0.25 0.24 0.24 0.23 0.23 0.22 0.21 0.21
0.74 0.67 0.61 0.57 0.51 0.46 0.42 0.37 0.35 0.34 0.34 0.34 0.35 0.37 0.41 0.42 0.43 0.44 0.44 0.43 0.40 0.39 0.39 0.32 0.29 0.24 0.22 0.24 0.27 0.28 0.27 0.26 0.26 0.26 0.27 0.26 0.25 0.25 0.25 0.24 0.23 0.21 0.21

GFSGL_prec_pwat_165.txt.gz
Precipitable_Water
0.87 0.90 0.94 0.96 1.00 1.03 1.03 1.05 1.07 1.13 1.15 1.18 1.19 1.19 1.19 1.21 1.23 1.21 1.22 1.22 1.17 1.28 1.34 1.29 1.30 1.30 1.26 1.24 1.21 1.15 1.07 1.01 0.94 1.00 1.01 1.01 1.00 1.01 1.04 1.09 1.14 1.14 1.13
0.83 0.83 0.87 0.92 0.95 0.95 0.98 1.00 1.03 1.07 1.16 1.16 1.17 1.20 1.21 1.19 1.23 1.17 1.14 1.21 1.14 1.24 1.31 1.31 1.28 1.30 1.24 1.24 1.19 1.14 1.13 1.14 1.04 0.94 0.99 1.00 0.99 1.04 1.05 1.05 1.05 1.08 1.11
0.80 0.80 0.83 0.90 0.94 0.95 0.97 1.09 1.16 1.18 1.17 1.17 1.17 1.22 1.21 1.22 1.18 1.19 1.15 1.12 1.15 1.20 1.28 1.27 1.27 1.27 1.22 1.23 1.22 1.18 1.14 1.13 1.09 1.02 0.98 1.04 1.05 1.08 1.06 1.07 1.06 1.06 1.04
0.79 0.79 0.87 0.90 0.92 0.99 1.12 1.18 1.19 1.19 1.16 1.10 1.10 1.18 1.19 1.17 1.15 1.14 1.12 1.11 1.17 1.22 1.27 1.27 1.26 1.24 1.22 1.22 1.17 1.14 1.13 1.10 1.10 1.07 1.04 1.03 1.03 1.04 1.03 0.98 0.95 0.96 0.90
0.76 0.80 0.88 0.89 0.97 1.03 1.08 1.15 1.19 1.16 1.15 1.10 1.11 1.11 1.11 1.11 1.13 1.12 1.15 1.27 1.26 1.23 1.24 1.25 1.26 1.26 1.25 1.23 1.18 1.15 1.13 1.09 1.05 1.01 0.97 0.96 0.92 0.87 0.81 0.77 0.70 0.70 0.68
0.76 0.80 0.86 0.87 0.95 1.00 1.04 1.16 1.19 1.20 1.13 1.20 1.14 1.17 1.17 1.15 1.26 1.28 1.28 1.23 1.22 1.20 1.18 1.20 1.23 1.23 1.22 1.20 1.18 1.16 1.12 1.02 0.94 0.81 0.71 0.64 0.63 0.62 0.63 0.62 0.60 0.58 0.54
0.76 0.81 0.83 0.89 0.94 0.98 1.01 1.09 1.16 1.20 1.20 1.17 1.21 1.22 1.22 1.26 1.28 1.27 1.26 1.23 1.20 1.18 1.17 1.16 1.14 1.15 1.13 1.07 0.93 0.80 0.72 0.66 0.64 0.62 0.57 0.56 0.54 0.54 0.54 0.52 0.51 0.50 0.50
0.75 0.80 0.84 0.89 0.93 0.95 0.98 1.01 1.11 1.18 1.18 1.18 1.19 1.21 1.21 1.22 1.24 1.23 1.21 1.17 1.12 1.06 1.00 0.92 0.89 0.85 0.70 0.65 0.56 0.53 0.53 0.53 0.51 0.51 0.49 0.46 0.45 0.45 0.44 0.43 0.43 0.44 0.45
0.75 0.81 0.85 0.88 0.90 0.92 0.87 0.93 1.00 1.06 1.11 1.12 1.12 1.09 1.06 1.05 1.07 0.98 0.94 0.88 0.87 0.82 0.76 0.71 0.69 0.58 0.54 0.53 0.48 0.45 0.45 0.46 0.49 0.47 0.45 0.44 0.44 0.42 0.42 0.42 0.38 0.38 0.38
0.77 0.82 0.87 0.88 0.89 0.88 0.79 0.84 0.86 0.90 0.85 0.86 0.87 0.86 0.84 0.80 0.86 0.84 0.80 0.76 0.71 0.69 0.69 0.57 0.53 0.48 0.46 0.48 0.47 0.46 0.43 0.43 0.45 0.44 0.45 0.46 0.47 0.46 0.44 0.41 0.40 0.36 0.35
0.82 0.85 0.87 0.87 0.87 0.86 0.71 0.76 0.77 0.76 0.75 0.76 0.78 0.77 0.76 0.77 0.76 0.74 0.72 0.65 0.56 0.48 0.45 0.43 0.44 0.45 0.44 0.46 0.47 0.46 0.43 0.44 0.42 0.41 0.40 0.39 0.39 0.38 0.36 0.35 0.34 0.32 0.29
0.82 0.84 0.85 0.84 0.82 0.69 0.63 0.66 0.69 0.71 0.72 0.70 0.67 0.67 0.68 0.65 0.62 0.58 0.53 0.50 0.48 0.44 0.41 0.46 0.49 0.49 0.50 0.49 0.47 0.45 0.43 0.42 0.40 0.37 0.34 0.30 0.28 0.28 0.29 0.30 0.32 0.33 0.35
0.82 0.82 0.84 0.82 0.69 0.60 0.58 0.59 0.64 0.67 0.64 0.60 0.58 0.52 0.49 0.51 0.51 0.50 0.48 0.45 0.43 0.42 0.47 0.48 0.50 0.50 0.47 0.44 0.42 0.38 0.39 0.36 0.30 0.25 0.24 0.25 0.26 0.27 0.30 0.31 0.33 0.35 0.34
0.80 0.81 0.82 0.76 0.57 0.55 0.56 0.59 0.61 0.59 0.54 0.49 0.44 0.42 0.43 0.44 0.45 0.44 0.42 0.39 0.42 0.42 0.45 0.48 0.47 0.42 0.39 0.37 0.35 0.33 0.28 0.24 0.23 0.24 0.24 0.26 0.27 0.28 0.28 0.31 0.30 0.30 0.29
0.80 0.81 0.80 0.70 0.53 0.53 0.54 0.57 0.56 0.56 0.49 0.41 0.41 0.40 0.40 0.39 0.40 0.39 0.37 0.38 0.41 0.45 0.45 0.43 0.40 0.37 0.33 0.30 0.27 0.23 0.23 0.24 0.24 0.25 0.25 0.25 0.26 0.27 0.28 0.31 0.30 0.30 0.30
0.77 0.79 0.79 0.65 0.52 0.52 0.51 0.52 0.54 0.49 0.45 0.42 0.40 0.42 0.43 0.41 0.39 0.39 0.40 0.41 0.43 0.43 0.41 0.39 0.36 0.32 0.29 0.24 0.20 0.21 0.23 0.23 0.24 0.25 0.25 0.26 0.26 0.26 0.27 0.31 0.30 0.30 0.29
0.77 0.80 0.78 0.63 0.51 0.50 0.50 0.47 0.41 0.44 0.44 0.41 0.42 0.42 0.40 0.38 0.38 0.37 0.41 0.42 0.41 0.42 0.38 0.37 0.34 0.30 0.25 0.21 0.20 0.21 0.21 0.24 0.26 0.26 0.26 0.25 0.26 0.26 0.26 0.26 0.27 0.28 0.28
0.80 0.83 0.78 0.62 0.51 0.51 0.51 0.46 0.41 0.37 0.35 0.38 0.43 0.40 0.38 0.36 0.36 0.37 0.43 0.43 0.40 0.40 0.36 0.36 0.32 0.29 0.24 0.21 0.21 0.21 0.24 0.25 0.26 0.26 0.26 0.26 0.26 0.25 0.24 0.24 0.24 0.24 0.24
0.80 0.82 0.78 0.65 0.53 0.54 0.52 0.46 0.41 0.38 0.37 0.39 0.41 0.40 0.39 0.37 0.36 0.38 0.45 0.46 0.42 0.38 0.33 0.35 0.32 0.28 0.24 0.23 0.23 0.23 0.25 0.26 0.26 0.26 0.26 0.25 0.25 0.24 0.23 0.24 0.23 0.23 0.23
0.82 0.82 0.76 0.65 0.55 0.52 0.49 0.42 0.39 0.37 0.38 0.37 0.35 0.36 0.38 0.36 0.33 0.35 0.42 0.47 0.47 0.43 0.34 0.34 0.32 0.29 0.25 0.24 0.24 0.25 0.26 0.27 0.26 0.25 0.25 0.25 0.24 0.24 0.23 0.22 0.22 0.22 0.22
0.82 0.80 0.76 0.65 0.58 0.51 0.47 0.42 0.40 0.39 0.36 0.34 0.33 0.38 0.37 0.33 0.33 0.35 0.39 0.41 0.45 0.46 0.36 0.33 0.32 0.29 0.26 0.25 0.25 0.25 0.27 0.27 0.26 0.25 0.24 0.24 0.23 0.22 0.22 0.22 0.22 0.22 0.22
0.83 0.78 0.74 0.66 0.61 0.52 0.47 0.44 0.41 0.40 0.35 0.32 0.33 0.37 0.38 0.36 0.36 0.37 0.39 0.40 0.42 0.47 0.42 0.33 0.33 0.30 0.27 0.25 0.25 0.26 0.27 0.26 0.25 0.25 0.24 0.24 0.24 0.23 0.24 0.24 0.23 0.22 0.21
0.83 0.76 0.73 0.67 0.63 0.54 0.47 0.44 0.41 0.37 0.34 0.34 0.35 0.36 0.37 0.38 0.39 0.40 0.40 0.41 0.41 0.45 0.44 0.35 0.32 0.29 0.27 0.27 0.28 0.28 0.27 0.27 0.27 0.27 0.25 0.25 0.24 0.24 0.25 0.25 0.24 0.22 0.21
0.83 0.76 0.72 0.67 0.62 0.55 0.48 0.44 0.40 0.35 0.34 0.34 0.35 0.36 0.36 0.38 0.40 0.41 0.43 0.43 0.41 0.42 0.45 0.35 0.32 0.28 0.25 0.25 0.27 0.28 0.30 0.30 0.30 0.28 0.28 0.26 0.26 0.26 0.27 0.27 0.26 0.24 0.22
0.83 0.77 0.72 0.66 0.59 0.54 0.49 0.44 0.39 0.34 0.33 0.33 0.33 0.35 0.36 0.38 0.40 0.42 0.44 0.43 0.41 0.39 0.43 0.36 0.31 0.26 0.24 0.25 0.26 0.28 0.28 0.28 0.29 0.29 0.29 0.28 0.28 0.28 0.29 0.28 0.27 0.24 0.22
0.82 0.76 0.73 0.66 0.59 0.54 0.49 0.44 0.37 0.34 0.32 0.32 0.32 0.35 0.37 0.39 0.41 0.43 0.45 0.44 0.41 0.39 0.40 0.35 0.30 0.25 0.23 0.25 0.27 0.27 0.25 0.25 0.25 0.28 0.30 0.30 0.30 0.31 0.30 0.29 0.27 0.25 0.23

GFSGL_prec_pwat_168.txt.gz
Precipitable_Water
0.91 0.91 0.88 0.88 0.91 0.96 0.98 1.00 1.03 1.05 1.07 1.09 1.15 1.18 1.20 1.19 1.24 1.25 1.24 1.27 1.21 1.19 1.25 1.27 1.27 1.31 1.28 1.28 1.26 1.24 1.14 1.13 0.99 1.02 1.08 1.09 1.07 1.06 1.06 1.09 1.13 1.13 1.14
0.90 0.88 0.87 0.91 0.93 0.93 0.95 0.98 1.00 1.02 1.07 1.09 1.11 1.13 1.18 1.20 1.23 1.25 1.21 1.23 1.19 1.13 1.19 1.26 1.31 1.30 1.26 1.29 1.24 1.18 1.13 1.13 1.05 0.98 1.04 1.05 1.04 1.06 1.05 1.05 1.08 1.11 1.11
0.87 0.81 0.81 0.82 0.86 0.89 0.94 1.00 1.07 1.11 1.12 1.11 1.13 1.17 1.21 1.19 1.21 1.24 1.21 1.16 1.17 1.17 1.23 1.26 1.29 1.28 1.24 1.23 1.22 1.16 1.14 1.12 1.11 1.06 1.02 1.04 1.05 1.07 1.05 1.08 1.07 1.08 1.09
0.81 0.79 0.76 0.83 0.89 0.91 0.99 1.08 1.14 1.17 1.11 1.04 1.06 1.13 1.18 1.19 1.18 1.17 1.17 1.16 1.14 1.13 1.17 1.22 1.25 1.25 1.23 1.21 1.18 1.17 1.16 1.11 1.09 1.05 1.02 1.02 1.03 1.05 1.04 0.97 0.95 0.99 0.93
0.80 0.77 0.82 0.90 0.90 0.97 1.00 1.09 1.15 1.15 1.11 1.07 1.07 1.08 1.14 1.14 1.15 1.14 1.13 1.12 1.10 1.13 1.19 1.23 1.26 1.26 1.25 1.24 1.19 1.15 1.13 1.09 1.05 1.02 0.98 0.95 0.89 0.83 0.79 0.79 0.74 0.72 0.71
0.78 0.79 0.87 0.88 0.91 0.97 1.00 1.09 1.15 1.16 1.13 1.13 1.14 1.14 1.06 1.09 1.14 1.19 1.19 1.15 1.19 1.19 1.16 1.20 1.23 1.23 1.22 1.20 1.18 1.16 1.12 1.01 0.89 0.75 0.70 0.64 0.62 0.61 0.61 0.59 0.57 0.55 0.50
0.77 0.81 0.86 0.86 0.90 0.95 0.99 1.07 1.14 1.15 1.11 1.14 1.16 1.20 1.18 1.23 1.27 1.25 1.24 1.22 1.18 1.18 1.16 1.16 1.14 1.14 1.11 1.05 0.92 0.81 0.76 0.70 0.66 0.59 0.51 0.48 0.45 0.44 0.42 0.40 0.40 0.40 0.40
0.77 0.81 0.85 0.88 0.92 0.96 0.97 1.01 1.12 1.17 1.14 1.15 1.16 1.19 1.18 1.21 1.23 1.22 1.19 1.16 1.11 1.05 0.98 0.92 0.89 0.84 0.70 0.65 0.56 0.54 0.52 0.49 0.46 0.43 0.39 0.37 0.36 0.38 0.38 0.38 0.38 0.39 0.42
0.77 0.80 0.85 0.90 0.91 0.93 0.93 0.99 1.04 1.11 1.11 1.12 1.13 1.14 1.12 1.11 1.10 1.04 0.96 0.91 0.83 0.78 0.73 0.74 0.68 0.55 0.50 0.47 0.43 0.39 0.38 0.40 0.44 0.43 0.43 0.42 0.41 0.40 0.39 0.37 0.34 0.33 0.32
0.79 0.82 0.89 0.92 0.91 0.90 0.88 0.92 0.99 1.00 0.96 0.96 0.94 0.91 0.90 0.90 0.88 0.88 0.81 0.77 0.70 0.67 0.66 0.52 0.47 0.46 0.47 0.46 0.44 0.42 0.38 0.41 0.41 0.40 0.41 0.42 0.41 0.40 0.39 0.34 0.30 0.24 0.23
0.84 0.85 0.89 0.92 0.91 0.89 0.84 0.84 0.86 0.88 0.82 0.82 0.79 0.76 0.78 0.79 0.78 0.77 0.74 0.69 0.59 0.46 0.40 0.39 0.41 0.44 0.47 0.47 0.45 0.43 0.40 0.40 0.38 0.36 0.34 0.32 0.29 0.28 0.28 0.28 0.27 0.26 0.24
0.84 0.84 0.87 0.90 0.91 0.85 0.76 0.77 0.78 0.76 0.75 0.75 0.72 0.69 0.71 0.70 0.68 0.65 0.60 0.51 0.46 0.39 0.38 0.44 0.46 0.47 0.47 0.46 0.44 0.42 0.39 0.37 0.34 0.29 0.26 0.25 0.25 0.26 0.27 0.29 0.30 0.32 0.33
0.83 0.83 0.87 0.88 0.89 0.74 0.69 0.69 0.69 0.72 0.71 0.66 0.64 0.62 0.59 0.58 0.56 0.54 0.50 0.46 0.43 0.44 0.44 0.46 0.48 0.46 0.43 0.38 0.36 0.36 0.33 0.27 0.24 0.23 0.23 0.24 0.24 0.26 0.28 0.29 0.32 0.32 0.33
0.82 0.82 0.86 0.83 0.75 0.65 0.66 0.66 0.66 0.66 0.63 0.60 0.56 0.49 0.47 0.47 0.47 0.46 0.43 0.43 0.45 0.44 0.48 0.46 0.41 0.37 0.36 0.34 0.30 0.24 0.22 0.23 0.23 0.23 0.23 0.26 0.27 0.27 0.27 0.29 0.27 0.29 0.29
0.83 0.83 0.85 0.82 0.64 0.58 0.61 0.65 0.66 0.65 0.60 0.52 0.45 0.42 0.40 0.40 0.40 0.37 0.35 0.38 0.41 0.43 0.42 0.39 0.35 0.30 0.27 0.24 0.21 0.21 0.23 0.23 0.23 0.24 0.24 0.24 0.24 0.26 0.26 0.31 0.28 0.28 0.26
0.81 0.81 0.84 0.80 0.58 0.52 0.54 0.59 0.64 0.59 0.53 0.47 0.44 0.41 0.42 0.42 0.40 0.37 0.41 0.43 0.44 0.43 0.39 0.34 0.29 0.27 0.23 0.19 0.19 0.20 0.23 0.23 0.24 0.25 0.24 0.24 0.24 0.24 0.25 0.27 0.27 0.26 0.25
0.82 0.81 0.84 0.78 0.55 0.47 0.51 0.52 0.47 0.50 0.47 0.45 0.44 0.45 0.44 0.39 0.37 0.39 0.42 0.42 0.41 0.41 0.35 0.31 0.27 0.24 0.20 0.19 0.20 0.21 0.22 0.24 0.26 0.25 0.24 0.24 0.24 0.24 0.24 0.24 0.24 0.24 0.23
0.86 0.85 0.84 0.78 0.57 0.47 0.51 0.50 0.45 0.39 0.37 0.39 0.45 0.45 0.42 0.37 0.37 0.39 0.42 0.41 0.38 0.36 0.33 0.30 0.26 0.24 0.21 0.20 0.21 0.22 0.24 0.25 0.24 0.24 0.24 0.24 0.24 0.23 0.23 0.22 0.23 0.23 0.23
0.86 0.84 0.85 0.78 0.61 0.49 0.52 0.50 0.43 0.39 0.37 0.39 0.43 0.42 0.39 0.35 0.35 0.40 0.42 0.39 0.37 0.32 0.31 0.29 0.27 0.24 0.22 0.22 0.22 0.24 0.25 0.25 0.25 0.24 0.24 0.23 0.23 0.23 0.22 0.23 0.23 0.23 0.22
0.91 0.87 0.85 0.77 0.63 0.52 0.50 0.46 0.41 0.37 0.38 0.39 0.38 0.35 0.36 0.33 0.32 0.39 0.45 0.45 0.41 0.36 0.31 0.30 0.28 0.26 0.23 0.23 0.23 0.25 0.26 0.27 0.26 0.25 0.24 0.23 0.23 0.23 0.22 0.23 0.23 0.22 0.22
0.93 0.86 0.84 0.77 0.63 0.56 0.48 0.44 0.41 0.39 0.38 0.38 0.35 0.36 0.34 0.30 0.30 0.35 0.42 0.45 0.45 0.41 0.33 0.30 0.28 0.26 0.24 0.24 0.24 0.26 0.27 0.27 0.26 0.25 0.24 0.25 0.26 0.25 0.26 0.27 0.27 0.25 0.22
0.96 0.87 0.82 0.76 0.65 0.59 0.49 0.45 0.41 0.39 0.39 0.34 0.34 0.36 0.34 0.31 0.31 0.31 0.37 0.41 0.44 0.45 0.40 0.30 0.29 0.27 0.24 0.24 0.25 0.26 0.26 0.25 0.25 0.26 0.26 0.27 0.27 0.27 0.28 0.27 0.25 0.23 0.21
0.97 0.87 0.81 0.74 0.65 0.62 0.53 0.46 0.42 0.40 0.37 0.33 0.34 0.34 0.34 0.33 0.33 0.34 0.36 0.39 0.41 0.43 0.43 0.34 0.29 0.26 0.26 0.26 0.27 0.28 0.26 0.26 0.26 0.28 0.28 0.28 0.28 0.28 0.27 0.26 0.25 0.23 0.21
0.97 0.87 0.81 0.73 0.66 0.62 0.57 0.46 0.43 0.41 0.35 0.33 0.33 0.33 0.33 0.35 0.36 0.38 0.39 0.40 0.40 0.40 0.44 0.37 0.29 0.26 0.24 0.25 0.27 0.28 0.29 0.28 0.29 0.29 0.30 0.29 0.28 0.27 0.26 0.26 0.25 0.23 0.21
0.97 0.86 0.82 0.72 0.66 0.63 0.59 0.48 0.44 0.41 0.35 0.34 0.33 0.33 0.34 0.37 0.39 0.41 0.42 0.41 0.39 0.38 0.41 0.38 0.29 0.25 0.23 0.24 0.26 0.27 0.28 0.28 0.29 0.30 0.30 0.29 0.27 0.26 0.25 0.25 0.25 0.22 0.23
0.94 0.86 0.84 0.73 0.67 0.65 0.60 0.50 0.45 0.39 0.34 0.34 0.33 0.34 0.34 0.37 0.40 0.41 0.42 0.42 0.40 0.38 0.38 0.38 0.29 0.25 0.22 0.24 0.26 0.26 0.26 0.27 0.27 0.29 0.30 0.28 0.26 0.25 0.25 0.25 0.24 0.23 0.22

GFSGL_prec_pwat_171.txt.gz
Precipitable_Water
0.96 0.93 0.90 0.90 0.92 0.92 0.93 0.96 0.98 1.03 1.04 1.04 1.08 1.12 1.15 1.18 1.22 1.22 1.24 1.22 1.20 1.23 1.20 1.21 1.24 1.30 1.28 1.29 1.28 1.23 1.18 1.13 0.99 1.03 1.09 1.12 1.10 1.11 1.14 1.17 1.19 1.17 1.18
0.96 0.94 0.92 0.91 0.91 0.92 0.94 0.98 1.00 1.00 1.04 1.06 1.06 1.07 1.12 1.19 1.22 1.20 1.23 1.24 1.18 1.15 1.17 1.16 1.26 1.30 1.27 1.28 1.26 1.20 1.18 1.14 1.07 0.99 1.06 1.08 1.08 1.10 1.09 1.07 1.11 1.14 1.15
0.94 0.93 0.90 0.86 0.87 0.88 0.91 0.96 1.00 1.04 1.09 1.06 1.07 1.07 1.15 1.20 1.20 1.23 1.24 1.24 1.18 1.18 1.20 1.19 1.23 1.23 1.24 1.25 1.22 1.18 1.16 1.14 1.13 1.05 1.01 1.07 1.06 1.06 1.04 1.06 1.06 1.07 1.09
0.92 0.87 0.80 0.81 0.84 0.88 0.91 0.97 1.09 1.15 1.10 1.04 1.04 1.07 1.13 1.19 1.22 1.21 1.21 1.14 1.13 1.16 1.16 1.14 1.14 1.21 1.22 1.21 1.19 1.17 1.15 1.11 1.09 1.05 1.01 1.00 1.01 1.03 1.01 0.94 0.89 0.93 0.88
0.86 0.80 0.77 0.83 0.91 0.92 0.99 1.03 1.14 1.16 1.10 1.05 1.04 1.07 1.13 1.11 1.14 1.16 1.12 1.10 1.11 1.10 1.12 1.15 1.20 1.25 1.26 1.25 1.19 1.15 1.13 1.08 1.04 0.98 0.93 0.87 0.81 0.80 0.75 0.72 0.67 0.65 0.63
0.83 0.78 0.81 0.88 0.90 0.95 1.01 1.04 1.13 1.15 1.10 1.09 1.10 1.02 1.08 1.09 1.13 1.15 1.15 1.11 1.11 1.10 1.14 1.18 1.21 1.22 1.22 1.20 1.18 1.17 1.13 1.00 0.92 0.80 0.72 0.63 0.56 0.52 0.49 0.46 0.44 0.43 0.38
0.80 0.80 0.82 0.89 0.90 0.96 1.00 1.05 1.13 1.12 1.13 1.09 1.13 1.16 1.10 1.14 1.21 1.21 1.17 1.16 1.15 1.15 1.14 1.14 1.12 1.12 1.08 0.98 0.90 0.85 0.84 0.78 0.66 0.55 0.43 0.40 0.38 0.39 0.38 0.37 0.37 0.37 0.37
0.79 0.79 0.85 0.87 0.90 0.97 0.98 1.03 1.11 1.11 1.11 1.12 1.14 1.18 1.16 1.19 1.21 1.20 1.18 1.14 1.08 0.96 0.91 0.89 0.85 0.78 0.73 0.69 0.59 0.51 0.46 0.44 0.42 0.40 0.36 0.34 0.35 0.35 0.36 0.34 0.34 0.36 0.37
0.79 0.78 0.85 0.89 0.93 0.97 0.96 1.00 1.08 1.13 1.10 1.12 1.12 1.13 1.11 1.08 1.06 0.99 0.93 0.87 0.77 0.74 0.76 0.76 0.67 0.52 0.44 0.41 0.37 0.35 0.36 0.39 0.43 0.41 0.41 0.41 0.40 0.38 0.35 0.31 0.27 0.26 0.25
0.80 0.80 0.89 0.93 0.94 0.96 0.96 0.99 1.03 1.04 1.00 1.01 0.98 1.00 0.99 0.87 0.91 0.85 0.86 0.79 0.68 0.65 0.61 0.47 0.45 0.43 0.45 0.44 0.40 0.38 0.35 0.36 0.36 0.37 0.39 0.37 0.36 0.32 0.28 0.25 0.23 0.19 0.19
0.84 0.85 0.91 0.95 0.95 0.96 0.94 0.96 0.96 0.93 0.89 0.88 0.81 0.82 0.86 0.83 0.81 0.78 0.75 0.69 0.56 0.41 0.38 0.40 0.45 0.46 0.47 0.45 0.42 0.38 0.35 0.37 0.35 0.31 0.29 0.27 0.27 0.26 0.26 0.27 0.27 0.26 0.23
0.84 0.86 0.90 0.94 0.95 0.91 0.88 0.86 0.86 0.82 0.79 0.75 0.73 0.73 0.77 0.75 0.71 0.68 0.63 0.47 0.39 0.34 0.36 0.41 0.45 0.47 0.46 0.44 0.42 0.39 0.37 0.33 0.29 0.25 0.24 0.24 0.23 0.23 0.25 0.28 0.30 0.30 0.32
0.83 0.84 0.89 0.93 0.93 0.88 0.80 0.78 0.76 0.77 0.74 0.69 0.66 0.64 0.62 0.62 0.62 0.57 0.47 0.42 0.41 0.42 0.44 0.48 0.47 0.43 0.40 0.38 0.35 0.33 0.28 0.24 0.23 0.22 0.22 0.22 0.24 0.26 0.29 0.28 0.29 0.31 0.34
0.81 0.84 0.89 0.90 0.89 0.79 0.74 0.76 0.72 0.72 0.69 0.65 0.61 0.57 0.54 0.54 0.51 0.48 0.44 0.44 0.44 0.45 0.44 0.39 0.37 0.35 0.33 0.30 0.25 0.23 0.23 0.23 0.23 0.22 0.22 0.24 0.26 0.26 0.27 0.29 0.27 0.28 0.28
0.83 0.85 0.87 0.89 0.86 0.67 0.67 0.71 0.72 0.73 0.72 0.62 0.59 0.53 0.47 0.44 0.42 0.41 0.41 0.39 0.42 0.42 0.39 0.35 0.30 0.27 0.24 0.19 0.19 0.21 0.22 0.23 0.22 0.23 0.23 0.24 0.24 0.25 0.25 0.27 0.27 0.26 0.25
0.82 0.84 0.85 0.86 0.76 0.61 0.60 0.65 0.73 0.73 0.70 0.65 0.55 0.47 0.45 0.41 0.39 0.39 0.40 0.42 0.42 0.40 0.35 0.29 0.25 0.23 0.18 0.18 0.18 0.20 0.22 0.22 0.23 0.23 0.23 0.23 0.22 0.23 0.23 0.24 0.24 0.24 0.23
0.84 0.85 0.86 0.84 0.68 0.53 0.56 0.59 0.57 0.60 0.58 0.50 0.45 0.43 0.40 0.36 0.38 0.41 0.43 0.43 0.43 0.39 0.30 0.26 0.23 0.19 0.18 0.18 0.20 0.21 0.20 0.23 0.25 0.24 0.23 0.23 0.23 0.23 0.22 0.23 0.24 0.23 0.22
0.88 0.88 0.86 0.84 0.65 0.51 0.55 0.57 0.55 0.48 0.43 0.43 0.47 0.44 0.39 0.37 0.38 0.43 0.43 0.42 0.37 0.34 0.30 0.25 0.22 0.20 0.18 0.18 0.20 0.22 0.24 0.25 0.25 0.24 0.24 0.24 0.24 0.24 0.23 0.23 0.23 0.21 0.21
0.89 0.87 0.87 0.85 0.67 0.54 0.54 0.55 0.50 0.45 0.41 0.42 0.46 0.44 0.40 0.37 0.37 0.43 0.42 0.38 0.35 0.30 0.29 0.24 0.23 0.21 0.19 0.20 0.22 0.24 0.26 0.26 0.26 0.25 0.25 0.25 0.25 0.25 0.23 0.23 0.23 0.23 0.22
0.94 0.90 0.86 0.85 0.67 0.57 0.53 0.53 0.46 0.42 0.40 0.41 0.40 0.37 0.38 0.35 0.33 0.39 0.41 0.40 0.37 0.33 0.29 0.25 0.23 0.21 0.20 0.21 0.22 0.24 0.26 0.27 0.27 0.27 0.26 0.26 0.26 0.25 0.23 0.24 0.25 0.23 0.20
0.99 0.90 0.87 0.85 0.70 0.61 0.54 0.51 0.46 0.41 0.39 0.39 0.35 0.37 0.35 0.30 0.32 0.40 0.44 0.42 0.40 0.36 0.31 0.26 0.24 0.22 0.21 0.22 0.24 0.25 0.26 0.27 0.28 0.27 0.27 0.27 0.25 0.24 0.25 0.25 0.24 0.21 0.19
1.01 0.93 0.86 0.82 0.72 0.61 0.58 0.51 0.47 0.41 0.39 0.37 0.33 0.34 0.34 0.30 0.32 0.39 0.44 0.45 0.44 0.41 0.37 0.28 0.24 0.23 0.22 0.23 0.24 0.25 0.26 0.26 0.26 0.27 0.27 0.26 0.25 0.25 0.25 0.23 0.22 0.20 0.20
1.01 0.96 0.87 0.83 0.74 0.64 0.61 0.52 0.46 0.41 0.39 0.35 0.32 0.32 0.33 0.30 0.30 0.34 0.38 0.43 0.43 0.42 0.40 0.33 0.26 0.24 0.24 0.25 0.27 0.27 0.26 0.26 0.27 0.29 0.27 0.25 0.25 0.24 0.24 0.22 0.21 0.21 0.22
0.99 0.97 0.89 0.84 0.75 0.65 0.61 0.57 0.46 0.43 0.39 0.33 0.32 0.32 0.31 0.30 0.31 0.31 0.34 0.39 0.40 0.40 0.41 0.37 0.28 0.24 0.23 0.25 0.28 0.28 0.29 0.29 0.30 0.30 0.27 0.25 0.24 0.24 0.23 0.22 0.22 0.22 0.22
0.96 0.97 0.91 0.83 0.75 0.65 0.61 0.60 0.50 0.45 0.38 0.33 0.32 0.32 0.32 0.31 0.32 0.35 0.37 0.38 0.39 0.37 0.39 0.38 0.29 0.24 0.22 0.24 0.26 0.27 0.28 0.29 0.30 0.29 0.27 0.26 0.25 0.23 0.23 0.23 0.22 0.21 0.22
0.91 0.97 0.92 0.85 0.77 0.67 0.64 0.60 0.54 0.46 0.37 0.33 0.32 0.32 0.33 0.32 0.35 0.38 0.40 0.40 0.38 0.37 0.37 0.39 0.30 0.25 0.23 0.25 0.26 0.27 0.27 0.28 0.28 0.29 0.28 0.26 0.24 0.23 0.23 0.22 0.22 0.22 0.23

GFSGL_prec_pwat_174.txt.gz
Precipitable_Water
1.07 1.06 1.00 0.98 0.97 0.92 0.88 0.89 0.94 1.00 1.03 1.05 1.10 1.13 1.13 1.14 1.17 1.18 1.17 1.21 1.19 1.22 1.24 1.19 1.18 1.25 1.24 1.27 1.26 1.24 1.19 1.12 0.99 1.04 1.10 1.14 1.14 1.13 1.16 1.17 1.19 1.19 1.20
1.06 1.01 0.96 0.96 0.91 0.91 0.89 0.91 0.95 0.98 1.03 1.04 1.05 1.05 1.08 1.11 1.17 1.18 1.17 1.22 1.25 1.18 1.18 1.17 1.14 1.22 1.26 1.27 1.26 1.21 1.17 1.17 1.07 0.99 1.06 1.08 1.09 1.12 1.11 1.11 1.12 1.14 1.14
1.04 0.99 0.95 0.92 0.92 0.89 0.91 0.93 0.94 0.95 1.00 1.03 1.02 1.01 1.04 1.12 1.16 1.19 1.20 1.21 1.24 1.22 1.17 1.15 1.15 1.21 1.19 1.21 1.24 1.20 1.18 1.16 1.12 1.04 1.01 1.07 1.07 1.08 1.05 1.06 1.05 1.06 1.08
1.02 0.96 0.92 0.93 0.90 0.85 0.86 0.90 0.93 1.02 1.09 1.07 1.05 1.04 1.05 1.14 1.20 1.20 1.19 1.19 1.18 1.12 1.14 1.16 1.16 1.13 1.14 1.19 1.19 1.17 1.16 1.10 1.08 1.05 1.00 0.99 1.00 1.01 0.98 0.88 0.84 0.89 0.83
0.98 0.93 0.91 0.88 0.85 0.85 0.90 0.96 1.04 1.11 1.11 1.04 1.00 1.01 1.06 1.12 1.14 1.19 1.18 1.12 1.09 1.07 1.10 1.13 1.17 1.19 1.21 1.23 1.19 1.16 1.12 1.08 1.04 0.97 0.96 0.90 0.82 0.75 0.67 0.65 0.57 0.55 0.55
0.92 0.88 0.86 0.83 0.86 0.91 0.96 1.01 1.03 1.12 1.09 1.06 1.02 1.03 1.07 1.06 1.15 1.16 1.13 1.09 1.07 1.07 1.09 1.18 1.23 1.23 1.23 1.22 1.19 1.18 1.13 1.02 0.87 0.77 0.69 0.57 0.49 0.48 0.45 0.42 0.40 0.38 0.35
0.91 0.88 0.86 0.85 0.89 0.93 0.98 1.00 1.05 1.12 1.11 1.07 1.07 1.10 1.02 1.09 1.16 1.16 1.15 1.10 1.09 1.11 1.11 1.09 1.08 1.08 1.06 1.00 0.93 0.87 0.82 0.76 0.68 0.53 0.43 0.38 0.35 0.35 0.35 0.33 0.34 0.34 0.34
0.88 0.85 0.85 0.88 0.89 0.95 0.99 0.99 1.05 1.12 1.09 1.09 1.14 1.16 1.16 1.18 1.21 1.17 1.14 1.09 1.03 0.95 0.91 0.89 0.83 0.76 0.74 0.69 0.60 0.52 0.46 0.42 0.39 0.37 0.34 0.34 0.34 0.36 0.33 0.32 0.32 0.31 0.31
0.84 0.84 0.85 0.90 0.91 0.95 0.96 0.99 1.06 1.08 1.10 1.12 1.13 1.12 1.10 1.05 1.02 0.99 0.95 0.81 0.77 0.75 0.75 0.72 0.61 0.49 0.43 0.41 0.36 0.35 0.37 0.39 0.44 0.43 0.43 0.41 0.38 0.34 0.29 0.24 0.21 0.21 0.21
0.86 0.84 0.89 0.93 0.95 0.95 0.97 1.02 1.06 1.10 1.11 1.11 1.08 1.04 0.97 0.91 0.94 0.87 0.83 0.75 0.69 0.65 0.59 0.42 0.39 0.40 0.40 0.40 0.36 0.35 0.32 0.35 0.36 0.35 0.32 0.29 0.26 0.27 0.27 0.25 0.23 0.19 0.20
0.90 0.88 0.93 0.95 0.96 1.00 0.99 1.03 1.01 0.97 0.98 0.93 0.95 0.89 0.89 0.85 0.84 0.79 0.76 0.66 0.56 0.43 0.38 0.41 0.44 0.45 0.44 0.42 0.39 0.34 0.33 0.34 0.30 0.26 0.25 0.25 0.26 0.25 0.26 0.28 0.28 0.26 0.23
0.91 0.89 0.93 0.95 0.97 0.99 0.96 0.92 0.97 0.93 0.85 0.80 0.79 0.80 0.81 0.78 0.76 0.73 0.64 0.49 0.41 0.36 0.39 0.43 0.47 0.46 0.45 0.42 0.39 0.36 0.32 0.27 0.25 0.24 0.23 0.21 0.22 0.23 0.25 0.26 0.28 0.31 0.33
0.90 0.89 0.93 0.95 0.97 0.95 0.88 0.88 0.86 0.81 0.78 0.73 0.73 0.71 0.69 0.68 0.67 0.56 0.43 0.39 0.41 0.40 0.44 0.47 0.46 0.44 0.40 0.36 0.33 0.29 0.26 0.24 0.23 0.20 0.20 0.21 0.24 0.27 0.27 0.27 0.28 0.31 0.32
0.88 0.88 0.92 0.92 0.92 0.88 0.84 0.83 0.81 0.75 0.71 0.70 0.65 0.63 0.60 0.60 0.50 0.43 0.41 0.45 0.46 0.46 0.44 0.40 0.37 0.34 0.32 0.28 0.22 0.22 0.22 0.22 0.21 0.20 0.21 0.23 0.26 0.26 0.25 0.27 0.26 0.26 0.26
0.88 0.88 0.90 0.92 0.90 0.79 0.77 0.78 0.79 0.77 0.75 0.67 0.63 0.59 0.53 0.45 0.41 0.40 0.42 0.41 0.42 0.40 0.37 0.32 0.27 0.24 0.19 0.18 0.19 0.21 0.21 0.22 0.21 0.23 0.23 0.23 0.24 0.25 0.25 0.26 0.25 0.22 0.20
0.86 0.86 0.89 0.89 0.88 0.71 0.70 0.73 0.80 0.78 0.76 0.73 0.66 0.59 0.52 0.45 0.43 0.44 0.44 0.43 0.42 0.38 0.30 0.24 0.22 0.17 0.16 0.17 0.18 0.19 0.21 0.22 0.23 0.24 0.24 0.24 0.24 0.24 0.23 0.23 0.23 0.22 0.20
0.87 0.87 0.89 0.89 0.80 0.62 0.64 0.67 0.64 0.69 0.73 0.69 0.63 0.55 0.45 0.40 0.41 0.43 0.43 0.42 0.40 0.35 0.26 0.22 0.18 0.17 0.17 0.19 0.19 0.20 0.21 0.24 0.26 0.25 0.25 0.25 0.25 0.22 0.21 0.21 0.22 0.23 0.21
0.91 0.92 0.89 0.87 0.70 0.59 0.61 0.65 0.64 0.59 0.54 0.51 0.52 0.44 0.39 0.37 0.40 0.45 0.45 0.43 0.35 0.30 0.25 0.21 0.18 0.18 0.18 0.19 0.20 0.22 0.23 0.25 0.26 0.26 0.26 0.25 0.23 0.22 0.22 0.22 0.22 0.21 0.19
0.92 0.91 0.90 0.87 0.67 0.56 0.60 0.63 0.61 0.56 0.47 0.42 0.44 0.41 0.38 0.38 0.42 0.46 0.44 0.38 0.31 0.26 0.23 0.21 0.20 0.19 0.20 0.21 0.22 0.24 0.24 0.26 0.27 0.27 0.26 0.24 0.23 0.23 0.22 0.23 0.22 0.20 0.19
0.96 0.92 0.91 0.86 0.66 0.54 0.57 0.59 0.56 0.51 0.42 0.41 0.40 0.36 0.37 0.37 0.37 0.40 0.41 0.40 0.35 0.29 0.24 0.22 0.22 0.21 0.21 0.21 0.23 0.24 0.25 0.27 0.28 0.27 0.25 0.24 0.24 0.24 0.23 0.22 0.20 0.19 0.20
0.97 0.93 0.90 0.87 0.68 0.58 0.54 0.56 0.53 0.48 0.41 0.40 0.37 0.37 0.34 0.31 0.35 0.40 0.40 0.40 0.38 0.34 0.25 0.23 0.23 0.22 0.22 0.22 0.23 0.24 0.25 0.27 0.28 0.26 0.24 0.24 0.24 0.23 0.23 0.22 0.21 0.22 0.23
0.99 0.94 0.90 0.87 0.73 0.61 0.57 0.55 0.51 0.47 0.42 0.39 0.36 0.37 0.35 0.31 0.33 0.40 0.42 0.42 0.41 0.39 0.33 0.26 0.24 0.23 0.22 0.22 0.23 0.24 0.25 0.26 0.27 0.26 0.25 0.25 0.23 0.23 0.23 0.22 0.22 0.23 0.23
1.00 0.95 0.91 0.87 0.78 0.65 0.62 0.57 0.52 0.47 0.42 0.38 0.35 0.35 0.34 0.30 0.31 0.37 0.43 0.44 0.43 0.41 0.38 0.28 0.25 0.23 0.24 0.25 0.26 0.26 0.25 0.25 0.27 0.27 0.25 0.24 0.23 0.23 0.23 0.22 0.22 0.22 0.23
0.98 0.97 0.91 0.88 0.82 0.69 0.63 0.61 0.52 0.50 0.44 0.36 0.34 0.33 0.31 0.29 0.30 0.35 0.40 0.43 0.42 0.41 0.40 0.34 0.26 0.24 0.23 0.25 0.27 0.28 0.28 0.28 0.29 0.27 0.26 0.25 0.23 0.23 0.23 0.22 0.22 0.22 0.23
0.95 0.96 0.94 0.88 0.84 0.71 0.63 0.64 0.57 0.50 0.46 0.36 0.33 0.31 0.30 0.29 0.29 0.32 0.36 0.38 0.39 0.38 0.39 0.38 0.28 0.25 0.24 0.25 0.26 0.27 0.28 0.29 0.29 0.27 0.27 0.26 0.24 0.24 0.23 0.22 0.22 0.22 0.23
0.91 0.93 0.94 0.91 0.86 0.78 0.66 0.63 0.60 0.52 0.44 0.37 0.33 0.31 0.29 0.29 0.29 0.31 0.32 0.34 0.36 0.37 0.37 0.38 0.31 0.25 0.24 0.25 0.26 0.27 0.28 0.29 0.28 0.28 0.27 0.26 0.24 0.24 0.24 0.23 0.23 0.22 0.22